Location: Newark
(48.6461°N, 4.3644°W)
Time: 22:54:20
(UTC+00:00)

S-56A Canister/Altair - Pass Details

Date: 23 January 2020
Orbit: 633 x 2499 km, 38.9° (Epoch: 19 February)

Event Time Altitude Azimuth Distance (km) Brightness Sun altitude
Rises 02:24:41 0° 257° (WSW) 2,919 - -52.8°
Reaches altitude 10° 02:28:45 10° 219° (SW) 2,088 - -52.3°
Maximum altitude 02:29:57 11° 204° (SSW) 2,074 - -52.1°
Drops below altitude 10° 02:31:13 10° 189° (S) 2,191 - -52.0°
Sets 02:35:58 0° 154° (SSE) 3,418 - -51.4°
